Lapse_Rate
7.9 7.7 7.7 7.4 7.0 6.8 6.7 6.6 6.5 6.4 6.2 6.0 5.9 6.0 5.9 5.9 5.7 5.6 5.6 5.6 5.7 5.7 5.8 6.0 6.0 6.0 5.9 5.7 5.8 5.9 6.0 5.9 5.9 6.0 6.0 6.4 6.0 5.9 5.9 5.9 5.8 5.9 5.7
7.7 7.6 7.7 7.3 6.9 6.8 6.7 6.7 6.6 6.5 6.1 5.9 5.8 5.8 5.8 5.7 5.7 5.7 5.6 5.7 5.8 6.1 6.2 6.2 6.3 6.2 6.2 6.1 6.0 5.9 5.9 6.0 5.8 5.7 5.8 6.2 6.0 5.9 5.9 5.8 5.7 5.8 5.7
7.4 7.7 7.6 7.1 6.9 6.9 6.9 6.9 6.6 6.3 6.1 5.9 5.8 5.8 5.7 5.8 5.7 5.8 5.9 5.9 5.9 6.1 6.3 6.4 6.5 6.5 6.4 6.3 6.1 6.1 5.8 5.5 5.6 5.8 6.1 6.1 5.9 5.9 5.8 5.7 5.6 5.6 5.5
7.5 7.6 7.4 7.2 6.9 6.9 7.0 6.9 6.5 6.2 6.0 5.7 5.8 5.7 5.8 5.7 5.8 5.8 5.9 6.0 6.0 6.1 6.2 6.2 6.2 6.4 6.5 6.5 6.4 6.2 5.8 5.6 5.6 5.9 6.1 6.1 6.0 5.9 5.8 5.7 5.6 5.7 5.7
7.5 7.4 7.1 7.1 7.1 7.0 7.0 6.7 6.5 6.4 6.1 5.7 5.6 5.7 5.8 5.8 5.7 5.7 5.8 5.9 6.0 6.0 6.2 6.3 6.1 6.1 6.1 6.4 6.6 6.5 5.8 5.8 5.7 5.9 6.2 6.3 6.0 5.9 5.9 5.9 5.9 5.8 5.8
7.5 7.1 6.9 6.8 6.9 6.9 6.9 6.7 6.4 6.3 6.3 6.0 5.7 5.7 5.7 5.8 5.9 5.9 5.9 5.9 6.0 5.9 6.2 6.1 6.1 5.8 6.3 6.3 6.5 6.5 6.2 5.5 5.8 5.6 6.2 6.5 6.0 5.9 5.9 6.0 5.8 5.8 5.8
7.4 6.9 6.8 6.6 6.7 6.7 6.7 6.6 6.5 6.3 6.3 6.2 6.1 5.9 5.9 5.8 5.8 5.8 5.9 5.9 6.0 6.1 6.1 6.1 6.2 6.0 5.9 6.1 6.2 6.2 5.9 5.7 5.9 5.7 6.1 6.2 6.0 6.1 5.9 5.8 5.8 5.8 5.8
7.4 6.8 6.5 6.5 6.6 6.6 6.6 6.6 6.5 6.4 6.2 6.2 6.2 6.2 6.1 6.0 5.9 5.9 5.7 5.9 6.0 6.0 6.1 6.1 6.1 6.0 5.9 6.1 6.4 6.2 5.7 5.6 5.9 5.9 5.8 6.0 6.0 6.0 5.9 5.9 5.7 5.8 5.9
7.6 7.0 6.4 6.4 6.4 6.4 6.5 6.5 6.4 6.4 6.4 6.2 6.2 6.3 6.2 6.2 5.9 6.0 6.0 6.0 6.0 5.9 6.1 6.0 6.0 6.0 6.1 6.1 6.3 6.2 5.6 5.4 5.7 6.1 6.3 6.2 5.9 5.9 5.9 5.7 5.8 5.9 6.0
7.6 7.3 6.5 6.5 6.5 6.4 6.5 6.6 6.5 6.5 6.6 6.5 6.3 6.3 6.3 6.3 6.2 6.1 6.0 6.0 6.0 5.9 6.1 6.0 5.9 5.9 5.9 5.5 5.8 5.7 5.4 5.3 5.7 6.0 6.4 6.1 6.0 6.0 6.0 6.0 6.1 6.1 6.1
7.6 7.5 6.8 6.6 6.7 6.6 6.5 6.6 6.6 6.7 6.8 6.8 6.6 6.4 6.5 6.5 6.4 6.2 6.1 6.0 6.0 6.0 6.0 6.1 6.0 6.1 5.9 5.8 5.9 5.6 5.7 5.5 5.4 5.6 6.2 6.1 6.1 6.0 6.0 6.1 6.2 6.2 6.3
7.6 7.6 7.2 6.8 6.8 6.8 6.8 6.6 6.6 6.7 6.8 6.9 6.8 6.7 6.5 6.6 6.6 6.3 6.2 6.0 6.1 6.0 6.1 6.3 6.3 6.2 6.1 6.0 5.9 5.8 6.0 5.9 5.8 5.4 5.6 5.8 6.0 6.1 6.1 6.1 6.2 6.2 6.4
7.6 7.5 7.5 7.3 7.0 7.0 7.0 6.8 6.7 6.8 6.8 6.9 6.9 6.8 6.6 6.6 6.5 6.4 6.3 6.1 6.2 6.2 6.2 6.3 6.4 6.3 6.2 6.1 5.9 5.8 5.8 5.7 5.8 5.1 4.8 5.5 6.2 6.1 6.1 6.2 6.2 6.4 6.5
7.2 7.5 7.5 7.6 7.3 7.0 7.0 7.2 7.0 6.9 6.7 7.0 7.1 7.0 6.8 6.8 6.7 6.5 6.3 6.3 6.4 6.4 6.2 6.3 6.5 6.3 6.1 6.0 5.9 5.9 5.6 5.4 5.1 5.3 5.2 5.3 6.2 6.5 6.2 6.4 6.3 6.4 6.6
6.8 7.0 7.2 7.6 7.6 7.3 7.1 7.1 6.9 7.6 6.8 6.9 7.1 7.1 7.0 6.9 6.9 6.6 6.3 6.4 6.4 6.3 6.4 6.4 6.6 6.3 6.1 6.0 5.9 5.8 5.8 5.5 5.3 5.0 5.1 5.2 5.6 6.4 6.2 6.3 6.1 6.3 6.7
7.3 7.1 6.9 7.2 7.5 7.4 7.5 7.2 7.3 7.2 7.3 6.6 7.1 7.2 7.1 6.9 6.9 6.8 6.5 6.4 6.5 6.3 6.4 6.5 6.4 6.3 6.1 6.0 5.8 5.7 5.7 5.4 5.4 5.1 5.0 5.2 5.5 6.3 6.2 6.2 6.2 6.4 6.7
7.3 7.6 6.9 6.9 7.0 7.4 7.4 7.4 7.3 7.2 7.4 7.1 6.9 7.2 7.2 7.0 6.9 6.9 6.8 6.6 6.5 6.3 6.4 6.4 6.4 6.4 6.0 5.9 5.7 5.9 5.6 5.4 5.1 5.4 5.3 5.4 5.6 5.8 6.3 6.3 6.3 6.5 6.6
7.4 7.4 7.2 6.8 6.8 7.4 7.3 7.4 7.4 7.3 7.1 7.2 7.2 7.1 7.2 7.1 7.1 6.9 6.8 6.8 6.6 6.6 6.4 6.4 6.3 6.3 6.2 5.9 5.7 5.8 5.7 5.3 5.3 5.1 5.4 5.3 5.6 5.7 6.3 6.4 6.3 6.4 6.5
7.4 7.4 7.3 6.6 6.5 7.4 7.5 7.3 7.2 7.5 7.3 7.3 7.0 7.3 7.4 7.2 7.2 7.1 6.9 6.9 6.9 6.8 6.6 6.2 6.2 6.3 6.0 6.1 6.0 5.9 5.5 5.4 5.5 5.2 5.3 5.6 5.7 6.1 6.3 6.4 6.4 6.3 6.3
7.2 7.5 7.0 6.7 6.6 7.0 7.7 7.3 7.1 7.4 7.6 7.3 7.1 7.1 7.4 7.5 7.5 7.3 7.1 6.9 7.0 7.0 6.8 6.4 6.1 6.0 5.9 6.0 5.8 5.5 5.5 5.5 5.4 5.2 5.1 5.4 5.6 5.9 6.3 6.4 6.4 6.3 6.4
6.9 6.9 6.9 7.0 6.5 6.3 7.5 7.5 7.3 7.2 7.6 7.4 7.2 7.1 7.4 7.5 7.6 7.5 7.3 7.1 7.1 7.0 6.9 6.5 6.0 6.0 5.5 5.6 5.9 5.5 5.3 5.6 5.4 5.1 5.1 5.3 5.8 6.0 6.4 6.4 6.2 6.2 6.3
6.8 6.6 6.9 7.0 6.8 6.5 6.8 7.2 7.1 7.0 7.3 7.5 7.3 7.2 7.5 7.8 7.6 7.6 7.4 7.3 7.2 7.2 6.9 6.8 6.1 6.0 6.0 5.4 5.8 5.4 5.3 5.1 5.2 4.9 4.9 5.0 5.4 5.7 6.2 6.2 6.1 6.3 6.4
6.6 6.8 6.9 6.7 6.6 6.8 6.6 6.6 6.8 7.0 7.4 7.5 7.6 7.4 7.6 7.8 7.5 7.7 7.5 7.4 7.2 7.2 7.0 6.8 6.4 5.9 5.9 5.6 5.6 5.5 5.3 5.0 5.2 4.9 4.8 4.9 5.1 5.5 5.8 6.1 5.9 6.2 6.3
6.1 6.8 6.5 6.6 6.6 6.7 6.6 6.6 6.4 7.3 7.1 7.5 7.6 7.5 7.3 7.6 7.6 7.7 7.7 7.5 7.2 7.2 7.0 6.9 6.5 5.6 5.7 5.6 5.6 5.5 5.2 5.3 5.1 4.8 4.7 4.7 5.0 5.3 5.4 5.9 6.0 6.0 6.4
5.5 5.6 5.2 6.6 6.6 6.7 6.6 6.7 6.6 7.0 7.1 7.1 7.4 7.5 7.3 7.5 7.6 7.6 7.8 7.5 7.3 7.2 6.9 6.8 6.6 5.7 5.6 5.2 5.5 5.6 5.4 5.1 5.2 5.1 4.8 4.7 4.4 4.7 5.3 5.3 5.7 5.8 6.1
5.6 5.2 5.1 5.9 6.2 6.3 6.5 6.4 6.6 7.1 7.2 6.9 7.1 7.5 7.6 7.6 7.6 7.6 7.9 7.6 7.1 7.1 6.9 6.6 6.2 5.9 5.5 5.2 5.4 5.4 5.1 5.1 5.1 5.1 4.8 4.6 4.7 4.6 5.1 5.2 5.4 5.5 5.4
Wind_Speed
13 15 19 16 14 14 14 13 14 13 13 14 15 14 15 16 15 14 15 14 14 16 16 14 13 12 12 11 17 19 20 20 20 22 22 22 19 17 16 22 23 22 22
16 18 18 17 15 14 13 12 12 14 15 16 15 14 15 16 16 15 16 14 13 16 16 15 13 11 12 14 18 18 17 20 21 21 21 20 16 15 15 25 24 21 23
15 17 18 16 15 13 12 11 12 15 16 16 16 15 16 16 16 16 17 16 13 16 14 14 14 12 13 14 16 16 17 18 21 22 22 17 15 21 24 26 23 24 24
15 15 17 17 15 12 12 12 14 17 17 16 16 16 16 16 16 16 17 17 15 15 14 13 13 13 12 14 15 16 16 18 19 18 16 18 16 19 23 24 23 24 25
13 15 17 17 16 13 12 12 14 16 17 16 17 18 17 17 16 16 16 17 17 16 16 15 15 13 12 13 16 17 15 16 17 14 15 20 16 16 21 21 22 23 23
13 15 20 17 16 14 13 12 14 14 15 15 15 16 16 16 15 14 15 16 15 16 17 15 17 17 18 15 15 16 16 15 14 6 17 21 16 17 16 17 20 24 23
11 15 17 17 16 14 13 12 13 13 14 15 15 15 15 15 16 15 16 16 16 16 17 18 17 22 18 16 15 15 16 12 10 2 16 19 18 18 18 22 23 23 24
14 12 15 15 15 14 13 12 13 13 13 14 15 16 16 17 18 17 17 17 17 14 14 13 11 20 19 18 15 15 15 11 7 4 12 19 21 20 20 22 24 24 24
11 13 10 13 14 13 14 13 13 14 14 14 15 16 17 19 18 20 18 18 18 15 14 13 12 19 20 18 16 15 15 6 7 5 17 17 20 20 20 22 25 23 23
9 11 11 11 13 12 11 13 14 15 14 13 15 15 16 16 17 19 21 20 17 16 13 12 12 14 20 15 16 16 13 8 11 13 17 19 20 21 21 21 23 23 22
9 9 11 11 11 13 13 12 13 14 14 15 13 14 13 10 12 13 15 15 17 15 13 13 11 11 18 15 12 14 7 9 11 7 17 26 22 22 20 20 21 22 22
12 11 11 11 12 10 12 15 12 12 11 11 13 13 11 12 12 15 17 16 17 14 11 13 14 14 17 10 8 14 13 4 1 3 14 25 22 21 20 19 20 20 21
15 11 12 10 11 11 8 9 10 11 11 12 14 13 14 11 10 11 11 13 13 13 10 13 13 11 12 12 10 11 13 5 4 14 18 22 24 20 20 21 19 20 20
17 16 13 14 10 10 5 8 9 7 7 6 12 14 8 5 5 4 4 9 9 12 10 13 11 11 11 11 11 10 10 7 5 4 14 23 22 21 19 19 20 20 21
18 19 18 16 13 11 8 5 5 9 8 9 10 16 14 5 5 4 4 8 10 12 11 8 9 7 9 12 13 10 9 8 6 6 13 22 22 21 20 19 20 20 21
8 17 17 17 15 12 10 7 6 7 8 6 8 11 16 11 7 6 5 5 5 10 11 10 7 6 6 8 5 9 10 11 13 10 16 18 24 23 21 21 21 20 21
7 5 15 16 15 14 12 10 5 6 8 9 5 9 12 12 7 7 5 4 4 9 9 9 8 8 5 6 7 6 8 9 9 13 18 16 20 23 21 20 20 20 21
11 9 13 13 15 13 9 8 8 5 5 9 9 12 12 12 11 5 5 6 7 7 6 4 4 5 6 7 6 6 6 8 6 11 19 19 16 17 20 22 22 21 21
10 9 8 14 17 16 11 7 8 7 5 5 9 9 16 14 13 7 6 7 11 4 4 4 4 7 6 7 8 7 7 6 6 18 16 18 19 17 15 23 22 22 21
10 6 7 9 13 15 11 9 6 8 8 5 5 6 10 12 13 7 5 4 7 6 5 5 7 4 5 7 6 7 6 5 5 6 10 17 18 20 18 18 19 20 23
5 7 5 5 8 8 8 9 9 9 8 7 5 8 9 11 13 10 8 5 7 7 8 8 4 7 3 6 4 5 4 5 7 6 11 9 14 17 18 19 17 15 18
3 3 2 2 4 5 8 8 7 9 5 6 4 6 12 14 14 10 8 5 8 8 9 9 9 3 4 8 5 7 5 2 2 3 7 8 10 12 14 18 18 17 18
4 2 4 5 6 7 8 6 4 5 3 4 6 8 8 12 10 11 9 8 9 8 8 10 11 11 6 6 5 3 4 4 6 3 8 10 10 8 11 16 17 19 22
5 3 4 5 7 6 8 6 12 8 7 8 7 8 7 7 9 10 11 10 10 8 9 9 9 9 9 8 4 3 3 2 6 4 2 5 10 10 8 8 11 16 20
6 6 4 2 6 8 6 9 10 10 8 7 7 10 12 9 10 11 10 11 11 8 10 10 10 10 9 9 8 4 3 2 3 6 7 3 7 8 9 6 11 11 15
4 6 2 4 8 6 7 6 11 13 11 9 10 10 10 6 8 9 10 11 10 10 10 10 11 12 10 9 6 7 7 8 7 6 6 4 8 9 5 7 7 12 16
Wind_Direction
113 129 126 129 128 129 132 141 154 156 145 137 135 134 129 122 118 116 111 108 114 120 123 126 121 112 108 104 101 100 102 102 101 99 97 98 101 103 104 105 98 101 101
120 128 124 130 132 133 137 148 159 155 148 145 144 142 137 131 133 130 129 129 134 136 136 135 121 118 118 111 104 101 104 107 104 103 101 98 103 107 110 96 98 101 100
115 125 135 130 133 140 144 142 147 153 153 152 149 147 143 142 144 144 144 144 148 138 135 137 132 132 123 115 112 111 113 116 122 124 123 105 92 105 103 100 105 106 106
123 138 140 137 139 140 137 137 142 152 155 156 153 152 152 151 152 156 156 158 156 141 141 143 137 136 130 127 126 126 132 140 140 140 114 113 108 110 111 110 114 112 109
132 137 137 142 138 137 134 136 143 149 154 156 157 158 159 160 162 161 164 163 156 152 153 150 138 135 136 143 141 144 156 159 161 160 134 119 117 117 117 121 118 115 108
137 127 141 143 138 139 135 137 143 148 152 152 159 162 166 163 163 164 167 167 162 159 160 158 160 151 157 159 157 161 173 173 190 169 128 119 124 123 124 126 115 112 114
114 117 141 144 138 136 137 135 137 145 150 155 160 166 168 165 170 169 173 174 176 182 171 173 170 153 158 164 164 176 193 180 212 172 129 111 124 125 123 113 111 114 111
116 128 138 145 141 139 136 140 143 147 155 160 166 171 169 173 183 179 181 181 185 185 177 170 144 150 161 165 170 186 213 196 214 172 121 116 124 125 125 119 112 115 115
122 126 140 155 152 149 152 156 154 153 160 171 175 182 180 192 192 192 189 192 191 189 186 169 154 168 165 166 177 194 228 221 281 105 106 111 125 132 131 126 123 121 121
135 134 145 155 160 161 160 169 164 160 164 169 181 191 192 203 197 198 195 203 195 198 185 164 179 183 175 175 182 199 225 259 249 197 123 128 137 136 135 134 131 129 127
158 163 154 160 167 170 167 174 171 168 170 173 182 192 195 199 200 205 203 201 197 200 183 180 177 180 177 167 193 200 214 235 261 147 127 142 147 141 141 138 137 136 136
172 174 167 169 168 176 180 159 184 178 178 181 180 181 201 203 203 195 193 205 190 181 187 177 167 171 161 157 184 190 219 229 289 354 143 153 147 146 149 146 145 143 140
177 182 174 174 168 177 194 160 183 181 187 189 189 194 188 201 212 197 182 189 178 180 170 143 146 161 180 159 173 194 201 193 89 169 170 158 150 156 157 153 154 150 147
181 182 181 169 171 178 194 177 183 175 185 184 196 186 200 194 185 176 177 172 186 179 202 174 172 185 169 162 182 188 188 136 99 65 175 166 156 157 161 163 160 154 150
186 181 177 172 174 177 209 190 206 167 177 188 186 191 196 186 169 168 187 181 188 194 197 170 173 172 171 180 195 180 174 127 127 185 247 174 162 160 164 170 164 159 153
226 185 175 173 170 175 189 226 188 156 173 208 187 183 190 187 180 176 181 184 195 194 200 156 168 174 178 170 189 182 183 150 166 178 194 175 163 165 166 171 168 166 159
247 232 173 170 164 170 184 204 224 189 169 186 176 206 194 201 179 173 163 186 198 196 172 157 179 172 155 169 185 188 181 175 185 181 182 165 168 167 171 170 169 169 165
207 216 166 167 167 168 187 194 209 202 178 176 186 192 213 210 198 176 172 179 188 202 174 175 175 181 162 181 183 193 194 202 175 226 177 164 165 170 174 176 172 169 166
229 201 188 168 161 167 186 219 195 198 217 190 174 182 194 198 204 193 194 173 175 167 172 178 175 189 168 180 188 183 192 202 197 193 157 161 165 164 173 177 169 169 169
217 208 175 154 168 167 172 198 214 189 206 201 205 186 167 203 200 197 201 193 161 166 156 153 166 186 175 175 187 179 192 216 201 182 158 163 168 162 169 169 173 175 176
95 50 29 119 153 161 173 184 210 208 196 197 199 165 175 201 194 200 201 182 154 146 155 159 152 174 174 173 177 179 198 210 194 188 163 168 164 163 164 164 171 177 182
98 61 330 260 190 173 188 198 206 214 187 191 189 203 194 195 190 200 189 178 150 153 155 165 166 156 178 179 175 174 173 179 260 263 160 162 159 158 162 172 180 176 177
143 134 247 257 260 208 213 188 162 84 108 177 204 224 208 182 181 183 183 160 161 159 170 179 184 176 178 187 195 157 146 179 159 243 168 164 166 167 170 182 184 190 181
164 135 54 317 299 267 198 199 161 175 191 204 202 204 231 184 186 183 189 160 171 168 173 180 179 187 179 183 184 240 96 155 157 163 226 167 174 170 170 189 203 209 184
155 138 103 234 276 289 277 195 172 195 206 188 195 191 219 208 194 199 181 155 173 177 177 174 177 187 191 181 188 163 112 152 78 156 188 162 177 178 181 178 197 206 183
139 109 86 306 292 259 267 250 181 196 200 202 199 198 200 198 193 191 170 166 177 177 175 179 181 184 187 190 187 183 182 172 170 159 163 184 182 187 174 183 199 194 196